Total_Precipitation_Accumulation
0.81 0.44 0.70 0.68 0.56 0.48 0.46 0.46 0.46 0.45 0.46 0.43 0.40 0.38 0.35 0.31 0.26 0.28 0.27 0.24 0.24 0.26 0.31 0.35 0.36 0.38 0.38 0.39 0.42 0.48 0.49 0.49 0.45 0.35 0.33 0.36 0.40 0.47 0.61 0.76 1.03 1.39 0.99
0.52 0.36 0.65 0.70 0.57 0.51 0.47 0.43 0.42 0.41 0.43 0.41 0.40 0.38 0.35 0.31 0.28 0.29 0.26 0.24 0.24 0.25 0.28 0.32 0.38 0.41 0.45 0.46 0.55 0.62 0.59 0.54 0.56 0.53 0.57 0.66 0.58 0.54 0.56 0.70 1.11 1.36 1.00
0.39 0.33 0.46 0.64 0.57 0.53 0.53 0.50 0.44 0.46 0.45 0.39 0.41 0.39 0.37 0.33 0.31 0.30 0.28 0.26 0.25 0.25 0.26 0.31 0.41 0.46 0.48 0.56 0.64 0.67 0.68 0.66 0.65 0.65 0.96 1.45 1.11 0.75 0.72 0.77 0.83 0.88 0.90
0.32 0.31 0.43 0.63 0.64 0.62 0.59 0.56 0.57 0.57 0.52 0.51 0.53 0.49 0.46 0.41 0.36 0.34 0.33 0.30 0.29 0.30 0.33 0.35 0.41 0.50 0.55 0.58 0.60 0.60 0.62 0.66 0.73 0.69 1.06 1.48 1.47 1.07 0.93 0.93 0.80 0.82 0.94
0.35 0.36 0.57 0.74 0.72 0.70 0.63 0.63 0.69 0.66 0.59 0.58 0.57 0.55 0.56 0.51 0.48 0.41 0.38 0.38 0.38 0.42 0.46 0.44 0.47 0.53 0.59 0.61 0.59 0.57 0.60 0.77 0.73 0.66 0.92 1.19 1.52 1.25 1.00 1.02 0.91 0.87 0.97
0.48 0.44 0.56 0.70 0.74 0.73 0.63 0.64 0.73 0.68 0.64 0.57 0.51 0.53 0.54 0.51 0.52 0.46 0.47 0.49 0.47 0.50 0.56 0.58 0.61 0.63 0.63 0.64 0.62 0.66 0.75 0.79 0.68 0.85 0.98 1.19 1.43 1.23 0.97 0.92 0.98 1.02 1.09
0.47 0.39 0.44 0.67 0.71 0.69 0.66 0.71 0.81 0.75 0.68 0.57 0.51 0.54 0.56 0.55 0.54 0.52 0.54 0.55 0.53 0.51 0.56 0.61 0.65 0.66 0.61 0.64 0.65 0.66 0.73 0.74 0.81 0.98 0.99 1.19 1.21 1.08 0.93 0.87 1.02 1.07 1.11
0.69 0.56 0.53 0.70 0.74 0.71 0.73 0.77 0.85 0.86 0.73 0.61 0.56 0.56 0.54 0.55 0.55 0.56 0.57 0.58 0.58 0.56 0.60 0.62 0.62 0.61 0.55 0.56 0.57 0.58 0.69 0.69 0.71 0.85 0.93 1.13 1.16 1.05 0.86 0.83 0.92 1.02 1.12
1.05 0.94 0.84 0.79 0.73 0.74 0.81 0.79 0.94 1.07 0.92 0.73 0.65 0.65 0.58 0.53 0.53 0.53 0.54 0.59 0.60 0.62 0.61 0.61 0.63 0.62 0.58 0.55 0.54 0.59 0.69 0.66 0.63 0.75 0.76 1.04 1.18 1.06 0.90 0.86 0.88 1.00 1.14
1.03 0.95 0.94 1.02 1.01 0.99 1.00 1.07 1.19 1.50 1.38 1.00 0.81 0.69 0.65 0.57 0.55 0.58 0.56 0.58 0.64 0.66 0.68 0.71 0.70 0.69 0.70 0.64 0.61 0.66 0.69 0.55 0.55 0.56 0.62 0.82 1.19 1.06 0.89 0.81 0.79 0.81 0.93
0.77 0.82 0.88 0.94 0.95 0.98 0.96 1.13 1.38 1.66 1.73 1.38 1.10 0.95 0.78 0.55 0.57 0.65 0.59 0.68 0.74 0.76 0.79 0.85 0.84 0.78 0.78 0.70 0.66 0.69 0.58 0.42 0.62 0.64 0.67 0.83 1.09 1.04 0.86 0.69 0.61 0.64 0.70
0.59 0.57 0.58 0.62 0.67 0.72 0.77 1.04 1.27 1.33 1.53 1.31 1.28 1.13 0.98 0.92 0.87 0.69 0.64 0.79 0.85 0.86 0.85 0.91 0.95 0.80 0.68 0.55 0.57 0.59 0.41 0.39 0.55 0.59 0.58 0.92 1.17 1.10 0.87 0.71 0.60 0.60 0.59
0.55 0.52 0.45 0.46 0.48 0.54 0.67 0.88 1.10 1.23 1.40 1.41 1.39 1.33 1.32 1.27 0.94 0.78 0.85 0.88 0.89 0.89 0.79 0.83 0.83 0.64 0.51 0.47 0.51 0.45 0.36 0.38 0.49 0.57 0.66 0.93 1.20 1.18 0.91 0.71 0.61 0.56 0.56
0.50 0.56 0.49 0.37 0.37 0.39 0.47 0.66 0.86 1.07 1.26 1.31 1.14 1.06 1.19 1.20 1.01 0.88 1.00 1.09 1.06 1.01 1.01 1.02 0.93 0.76 0.57 0.50 0.48 0.48 0.43 0.46 0.53 0.61 0.73 0.73 1.00 1.12 1.01 0.80 0.67 0.58 0.59
0.47 0.54 0.56 0.48 0.40 0.39 0.44 0.51 0.58 0.87 1.05 1.20 1.25 1.03 1.15 1.19 1.12 0.98 0.93 1.10 1.06 1.04 1.06 1.06 1.02 0.90 0.77 0.62 0.59 0.56 0.59 0.58 0.58 0.54 0.67 0.64 0.76 0.99 1.08 0.99 0.84 0.70 0.65
0.40 0.47 0.52 0.55 0.54 0.50 0.49 0.51 0.51 0.56 0.67 0.79 0.76 0.73 0.92 1.04 1.00 1.00 0.87 0.92 0.99 1.10 1.25 1.24 1.07 0.99 0.88 0.75 0.75 0.72 0.71 0.68 0.67 0.55 0.64 0.65 0.56 0.63 0.81 1.00 1.02 0.91 0.82
0.39 0.42 0.47 0.54 0.61 0.62 0.63 0.71 0.64 0.59 0.64 0.64 0.60 0.61 0.72 0.83 0.85 0.97 0.95 0.91 0.92 1.11 1.27 1.34 1.23 1.14 0.96 0.86 0.83 0.81 0.73 0.76 0.76 0.66 0.64 0.68 0.57 0.48 0.62 0.87 1.04 1.06 0.96
0.38 0.37 0.39 0.43 0.48 0.53 0.60 0.68 0.73 0.73 0.75 0.71 0.74 0.70 0.66 0.79 0.91 1.03 1.06 0.97 0.95 1.12 1.28 1.37 1.42 1.39 1.24 1.12 1.01 0.90 0.83 0.90 0.86 0.72 0.70 0.74 0.75 0.62 0.61 0.65 0.81 1.01 1.09
0.37 0.33 0.31 0.32 0.32 0.35 0.42 0.54 0.65 0.72 0.80 0.86 0.88 0.86 0.84 0.88 0.92 1.06 1.20 1.20 1.19 1.25 1.29 1.31 1.36 1.31 1.29 1.24 1.12 1.05 0.95 0.94 0.94 0.81 0.81 0.87 0.88 0.84 0.75 0.57 0.56 0.59 0.83
0.30 0.31 0.30 0.31 0.30 0.27 0.31 0.45 0.56 0.63 0.71 0.87 0.94 1.01 1.27 1.36 1.14 1.10 1.21 1.23 1.25 1.38 1.38 1.49 1.60 1.45 1.30 1.34 1.30 1.19 1.05 0.96 0.89 0.90 0.96 1.00 0.98 0.91 0.86 0.73 0.65 0.45 0.53
0.16 0.15 0.18 0.24 0.31 0.29 0.26 0.33 0.44 0.53 0.67 0.81 0.97 1.04 1.27 1.37 1.28 1.29 1.30 1.29 1.29 1.33 1.37 1.53 1.77 1.66 1.48 1.40 1.53 1.46 1.24 1.04 0.95 0.94 0.94 1.05 1.09 1.04 1.01 1.04 0.86 0.65 0.47
0.09 0.09 0.12 0.15 0.24 0.32 0.36 0.41 0.53 0.71 0.83 0.93 1.06 1.13 1.24 1.26 1.25 1.18 1.33 1.42 1.36 1.43 1.50 1.64 1.82 1.88 1.71 1.57 1.76 2.04 1.75 1.42 1.06 0.94 0.92 0.93 1.05 1.09 1.03 0.96 0.90 0.84 0.67
0.05 0.07 0.12 0.20 0.33 0.50 0.66 0.88 1.13 1.41 1.53 1.42 1.27 1.34 1.47 1.53 1.49 1.42 1.48 1.62 1.54 1.55 1.59 1.63 1.66 1.97 2.04 1.88 1.86 2.23 1.95 1.73 1.65 1.17 0.89 0.85 1.05 1.15 1.14 1.04 0.93 1.00 0.97
0.12 0.19 0.29 0.41 0.57 0.74 0.95 1.17 1.43 1.66 1.82 1.84 1.86 1.89 1.87 1.82 1.70 1.59 1.58 1.62 1.64 1.68 1.61 1.51 1.64 1.96 2.29 2.25 2.11 1.93 1.72 1.60 1.78 1.63 1.12 0.88 0.99 1.10 1.21 1.12 1.03 1.06 1.10
0.29 0.42 0.53 0.76 0.93 1.07 1.13 1.23 1.45 1.56 1.63 1.74 1.88 1.93 1.93 1.84 1.71 1.56 1.51 1.54 1.60 1.69 1.68 1.72 1.86 2.12 2.34 2.48 2.41 2.14 1.85 1.64 1.36 1.47 1.45 1.25 1.05 0.97 1.00 1.11 1.20 1.13 1.11
0.57 0.81 0.96 1.07 1.16 1.16 1.14 1.16 1.30 1.44 1.52 1.60 1.73 1.79 1.73 1.59 1.54 1.51 1.49 1.45 1.40 1.47 1.57 1.73 1.96 2.07 2.23 2.41 2.41 2.14 1.93 1.76 1.58 1.50 1.38 1.42 1.41 1.15 0.98 0.97 1.07 1.09 1.09